Tracking 32420 objects as of 8-Dec-2025
HD Live streaming from Space Station
objects crossing your sky now

CZ-4C R/B

Track CZ-4C R/B now!
10-day predictions


NORAD ID: 54701
Int'l Code: 2022-169C
Perigee: 673.6 km
Apogee: 782.1 km
Inclination: 60.0 °
Period: 99.2 minutes
Semi major axis: 7098 km
RCS: Unknown
Launch date: December 12, 2022
Source: People's Republic of China (PRC)
Launch site: Jiuquan Satellite Launch Center, China (JSC)

Note: This is a ROCKET BODY
Your satellite tracking list
Your tracking list is empty




NASA's NSSDC Master Catalog

Two Line Element Set (TLE):
1 54701U 22169C   25342.28237470  .00000806  00000-0  23118-3 0  9998
2 54701  59.9577  18.8756 0076460 258.1608 101.0854 14.51519462158404
Source of the keplerian elements: AFSPC